Helicity
117 149 163 121 84 48 115 70 45 34 122 89 49 41 16 -16 39 29 20 40 67 84 131 126 108 130 76 3 28 37 33 33 91 96 193 193 174 264 320 316 205 123 165 190
134 119 105 61 61 56 64 58 27 33 84 78 30 32 16 -4 3 43 32 35 59 91 116 118 89 100 94 26 27 18 44 49 67 117 141 165 178 212 304 409 242 149 218 197
55 116 30 85 70 66 59 45 27 42 64 40 26 11 27 27 57 76 46 20 59 71 95 108 76 90 94 71 40 51 57 60 38 49 157 235 274 251 239 201 308 368 341 170
69 59 70 28 51 44 29 32 36 50 75 90 104 20 14 52 6 -3 17 44 39 59 77 100 73 90 77 101 100 109 73 48 63 87 88 123 146 131 133 206 311 319 227 3
104 64 46 63 35 40 48 64 49 56 71 75 49 44 21 24 10 2 53 47 30 56 58 93 67 66 72 94 111 118 117 54 70 84 89 117 98 61 138 141 148 124 124 116
158 160 106 38 54 61 87 79 77 70 78 65 41 55 24 11 21 35 63 20 22 53 74 62 74 61 79 71 88 115 104 64 36 61 75 100 85 129 102 157 91 22 79 33
77 93 126 135 97 53 57 105 94 67 116 76 69 76 24 26 6 -0 53 30 24 66 127 81 94 68 71 85 75 70 77 67 42 50 85 86 66 61 75 89 64 71 5 -36
79 76 48 70 47 77 20 29 101 81 59 48 70 55 44 23 22 31 39 37 39 60 101 91 98 65 62 77 70 63 52 45 61 45 6 -19 1 -11 -3 39 37 69 42 27
83 106 118 57 49 58 64 64 26 87 92 67 84 24 33 19 -1 6 33 25 36 24 59 80 96 81 72 74 80 77 66 38 44 45 27 4 -4 -5 -14 -6 -10 9 50 42
117 93 93 90 83 65 98 73 93 119 65 42 47 43 54 28 5 8 15 30 36 33 20 47 73 94 84 85 84 67 52 54 45 38 31 18 32 29 2 1 25 32 35 46
141 104 110 92 57 89 109 127 158 148 89 74 56 60 52 -25 -1 32 43 27 38 56 39 50 80 74 76 88 93 82 62 50 37 37 33 24 25 40 34 24 22 30 40 47
125 72 85 97 108 128 160 113 68 93 101 62 75 81 52 21 28 25 38 32 43 26 33 30 46 89 84 94 100 106 83 67 54 45 43 41 35 31 23 12 14 16 21 29
161 48 33 57 90 111 129 168 167 190 175 76 70 145 70 164 103 59 40 28 27 35 48 51 56 68 43 48 76 94 102 90 74 70 65 45 39 47 49 38 27 24 28 31
137 146 110 107 220 208 208 173 176 133 111 87 85 76 59 84 86 57 62 37 35 21 35 67 58 51 22 22 42 47 75 86 98 91 73 74 66 67 63 51 36 47 44 66
90 76 91 109 97 105 81 81 124 135 115 64 65 82 80 41 36 63 62 64 89 50 49 63 51 45 28 32 32 26 44 79 86 83 73 68 72 64 64 53 57 55 66 49
160 104 83 33 21 40 54 56 60 53 64 85 26 -14 25 42 17 8 29 26 21 50 46 50 39 26 39 51 56 69 54 58 74 65 45 21 31 32 34 26 31 52 52 56
136 94 62 27 45 38 27 2 31 52 65 77 63 67 53 32 32 18 17 33 44 22 11 34 52 31 33 47 98 74 94 95 70 46 41 47 48 42 48 45 46 51 67 81
75 58 70 84 62 19 -0 27 31 55 115 136 92 28 25 91 42 29 54 68 72 60 27 30 53 37 9 55 82 102 98 108 97 85 81 91 100 109 124 131 150 206 230 243
12 41 87 85 66 56 18 13 -16 22 69 112 46 76 213 184 133 123 51 71 43 45 72 36 36 53 135 82 117 156 167 199 162 174 177 167 187 241 279 288 278 275 314 326
17 14 59 84 90 120 105 124 108 82 82 142 106 114 131 247 147 129 96 4 62 24 27 37 59 88 129 136 159 181 265 241 328 305 303 299 323 348 363 330 307 299 324 348
85 93 56 47 72 43 37 37 47 100 149 120 86 103 144 199 228 199 116 96 17 86 63 56 66 109 135 146 242 264 343 429 402 415 443 453 428 414 379 346 291 303 324 379
62 59 77 58 75 18 39 64 100 86 47 95 99 33 29 246 253 232 75 71 63 120 167 155 150 188 230 243 337 500 592 522 569 577 596 567 497 451 389 337 371 319 342 412
53 44 43 44 41 54 61 15 21 40 25 50 134 47 -27 206 178 176 114 76 71 131 149 176 227 349 330 300 362 562 491 525 568 561 526 484 431 369 348 336 338 366 352 368
16 24 42 32 10 12 15 28 22 -10 -0 -9 31 7 4 42 77 3 69 67 46 89 155 230 365 473 520 537 546 449 411 443 370 371 388 393 440 461 560 459 382 384 358 349
27 16 10 9 4 22 19 37 33 31 66 18 -11 23 -11 -2 93 -35 68 141 115 81 142 270 363 433 443 450 426 402 415 296 312 323 281 332 383 411 423 442 413 417 435 328
11 18 12 -2 15 37 8 -33 58 39 46 70 -12 -5 -5 -3 66 49 207 235 194 232 250 312 384 418 357 301 291 301 259 210 200 295 292 249 210 232 229 277 368 452 382 360
Wind_Speed
44 51 52 44 47 61 65 61 60 57 42 46 43 17 21 34 14 2 4 6 10 13 21 26 29 32 31 19 12 6 11 10 13 10 6 10 17 24 41 36 38 36 38 32
43 60 58 54 55 56 52 63 68 68 56 50 61 53 37 56 17 7 7 6 7 12 17 22 25 28 30 22 12 8 8 9 11 10 15 7 8 21 31 37 32 33 34 28
55 53 56 59 55 59 54 52 68 69 52 63 65 71 26 12 14 4 3 4 4 14 13 18 22 26 28 23 15 11 6 2 8 9 10 4 6 9 22 34 37 37 34 33
64 65 50 52 64 58 75 58 68 76 65 61 38 59 44 35 32 36 13 10 7 14 15 17 22 26 29 27 23 20 11 2 11 14 13 21 22 30 33 36 26 23 25 28
54 54 58 58 56 45 68 59 57 64 68 71 63 54 46 31 31 51 39 13 13 16 19 19 21 27 31 33 32 33 27 17 11 19 16 19 13 13 12 21 32 25 25 24
56 43 45 56 47 43 41 48 49 52 53 76 59 46 47 38 32 22 34 17 17 18 19 24 19 25 29 33 36 35 35 38 36 31 25 27 26 11 13 19 28 32 29 36
64 69 51 42 41 39 50 51 54 58 55 73 44 40 50 32 37 47 54 35 9 17 18 27 24 24 26 29 34 37 37 36 38 40 46 47 49 52 38 53 54 50 59 71
47 57 71 56 59 47 44 47 51 56 64 63 38 55 46 36 43 40 36 33 14 20 20 24 25 28 27 25 27 30 33 36 39 41 40 45 47 50 49 52 50 49 48 48
42 49 45 50 53 52 45 63 63 74 75 71 63 53 61 54 41 44 40 40 31 3 20 23 22 26 28 29 30 30 28 32 33 37 40 42 41 44 41 41 46 38 39 37
41 45 37 38 39 52 65 45 52 58 69 76 61 57 48 32 28 39 34 42 36 16 9 20 21 26 26 26 24 25 24 26 31 33 32 34 40 45 41 38 36 33 33 36
41 44 43 42 40 43 47 60 60 59 67 77 75 60 40 59 57 53 39 37 29 18 11 10 16 19 23 22 21 22 23 25 23 28 33 34 38 44 47 45 39 34 30 31
45 46 51 52 51 47 47 54 65 79 62 65 79 74 39 38 42 31 34 32 26 17 8 4 6 13 17 19 20 22 27 33 28 23 27 31 32 35 37 40 35 27 30 28
48 51 55 50 44 44 50 45 51 61 71 94 90 60 31 54 65 65 59 45 35 25 14 11 6 7 16 17 19 21 27 32 31 23 22 24 27 26 24 23 23 26 25 27
49 55 61 62 50 50 59 59 63 62 71 80 84 82 78 82 70 63 64 52 45 36 23 17 11 6 8 14 14 20 24 26 28 29 26 24 23 23 22 21 21 21 22 23
53 65 63 66 69 76 76 79 79 83 78 90 88 89 77 69 74 82 75 69 62 44 33 20 13 12 11 10 12 14 18 20 22 26 26 25 20 19 20 21 21 21 21 23
47 55 56 67 70 76 87 90 89 87 90 95 94 105 88 88 80 80 79 69 62 53 39 33 34 20 17 15 17 13 13 14 15 16 20 18 16 17 19 20 21 23 26 32
50 49 53 61 48 60 79 83 92 91 84 88 100 93 82 80 76 81 74 71 60 59 56 53 45 25 20 19 18 16 16 11 12 11 10 9 9 10 12 17 22 26 30 36
50 48 50 59 60 74 58 56 62 66 70 74 81 84 81 82 72 65 59 65 65 65 65 66 66 54 33 24 22 20 16 15 13 10 9 8 10 14 18 20 23 27 32 35
44 48 53 58 61 73 77 59 56 63 72 56 65 68 68 70 82 88 79 74 80 78 81 78 72 62 49 45 28 26 27 22 16 14 13 13 15 16 19 21 23 26 26 30
35 41 49 47 60 66 43 49 54 57 74 54 57 63 64 69 76 75 72 75 67 70 64 63 61 46 37 36 32 30 28 25 24 18 16 17 17 16 16 16 18 21 24 27
32 40 52 54 58 61 58 64 62 57 57 62 64 68 69 69 69 79 74 68 62 63 60 45 38 36 28 24 22 22 20 22 20 15 14 12 13 13 15 15 17 19 20 24
28 32 38 41 50 61 38 39 44 47 58 67 66 66 70 75 71 66 58 54 50 47 47 38 34 27 25 21 18 17 17 16 14 10 7 10 14 15 16 15 20 20 21 24
36 36 34 34 40 40 37 40 57 64 68 67 72 71 69 75 66 56 52 46 38 33 28 23 22 20 20 19 17 13 12 10 8 6 8 11 13 16 17 19 19 20 24 26
59 59 53 60 55 61 57 39 65 62 63 68 66 66 70 62 45 48 47 43 34 27 24 17 12 11 10 10 10 8 11 8 4 4 7 10 12 16 22 23 26 25 27 28
59 56 52 60 59 58 47 38 62 66 67 65 62 67 65 46 43 44 44 38 36 25 20 14 8 4 4 7 6 3 4 5 1 3 7 11 16 18 20 25 30 30 34 30
61 59 58 57 54 61 68 11 59 66 65 62 64 65 50 48 45 39 35 33 35 28 23 12 9 8 8 6 3 3 3 3 3 8 10 13 15 18 19 21 26 36 35 37
Wind_Direction
259 259 254 259 264 272 281 283 286 286 302 303 304 284 314 219 353 47 76 98 44 69 50 47 41 37 25 26 345 13 35 44 50 52 203 111 139 183 200 203 202 197 202 206
266 259 264 269 271 272 274 280 279 276 291 297 292 298 308 241 215 7 21 108 58 81 63 59 65 62 70 60 24 18 31 67 83 88 229 233 163 202 211 213 207 205 204 210
263 277 264 264 267 268 271 276 275 274 289 290 289 286 300 250 327 335 310 154 78 133 86 77 87 86 90 78 42 354 11 13 107 105 118 191 131 196 216 216 221 223 211 220
267 265 273 265 264 266 267 273 275 269 280 284 304 295 307 317 218 217 201 180 153 143 114 94 105 107 116 103 89 83 74 128 128 135 140 141 135 144 155 164 179 207 195 187
269 268 261 265 267 265 266 272 276 274 273 275 280 293 309 320 321 249 318 176 163 154 140 118 114 123 122 121 119 120 107 104 144 147 157 164 162 149 179 183 181 201 202 202
267 274 272 266 270 267 280 271 281 280 279 265 275 285 298 307 314 336 331 358 142 151 143 136 107 117 120 127 132 126 125 132 131 140 142 153 161 177 154 178 190 226 205 186
261 259 268 272 270 266 262 268 272 270 270 265 284 278 277 308 308 280 271 306 116 145 148 143 131 129 125 127 134 135 133 132 138 144 155 157 162 164 150 159 163 165 176 188
262 263 254 262 259 268 262 257 263 267 267 269 274 274 280 300 295 299 296 307 335 149 154 149 140 141 138 132 133 133 137 138 142 146 149 156 158 160 163 165 166 169 172 175
275 266 277 269 259 254 264 257 260 267 267 268 271 282 273 279 293 294 292 292 298 267 154 153 140 143 143 143 144 143 140 145 145 150 152 157 157 160 158 159 167 166 171 176
281 272 279 276 269 260 256 273 261 260 262 259 272 274 278 292 293 308 298 291 286 276 183 157 154 150 147 147 145 150 153 153 152 154 157 159 163 168 167 166 168 172 177 181
285 273 272 276 270 267 257 256 261 267 261 260 263 274 285 269 282 288 298 300 297 274 260 180 170 166 160 153 156 157 161 165 168 164 163 165 169 174 178 180 181 184 188 195
284 276 270 268 269 275 272 264 259 256 264 268 266 267 291 295 284 308 308 315 311 292 288 265 199 193 184 176 170 171 169 171 174 179 175 175 174 176 182 187 190 197 204 211
283 271 270 274 275 273 269 271 270 269 267 256 260 272 296 285 274 281 286 292 305 299 292 286 287 216 193 189 183 184 179 180 181 192 195 193 192 194 201 206 217 212 224 220
281 271 267 264 274 279 270 270 272 273 267 266 267 272 273 266 272 276 278 284 294 294 286 281 273 240 207 185 187 176 175 176 177 183 195 205 210 216 221 220 216 217 232 243
276 270 272 272 274 272 272 268 267 266 271 266 270 269 275 280 274 266 271 273 282 293 281 270 261 256 246 214 188 183 172 175 179 184 193 202 212 233 238 241 247 252 248 250
283 275 276 276 276 273 270 268 268 267 266 269 270 264 276 275 276 271 268 276 277 279 285 286 279 264 245 227 194 203 196 178 176 186 188 191 205 225 246 254 258 266 271 280
280 279 279 279 285 285 276 275 269 269 272 276 272 276 281 278 276 272 271 270 275 277 279 281 282 276 247 216 238 221 235 224 190 183 195 217 215 218 234 267 276 282 288 293
277 279 281 280 286 278 288 301 288 277 275 283 286 286 281 277 278 277 277 273 274 275 277 278 276 276 275 270 261 245 230 220 218 217 223 245 268 283 292 294 295 300 303 302
270 274 282 282 281 287 294 306 291 281 280 291 294 293 292 286 276 271 273 277 273 275 272 274 276 275 268 267 269 259 247 237 234 248 261 274 284 293 299 302 307 310 313 314
267 269 276 286 284 283 305 319 315 301 279 296 299 297 294 290 277 278 281 281 279 274 279 280 274 275 270 264 260 260 258 249 254 261 276 287 293 299 311 319 326 329 326 326
267 274 271 279 284 291 298 299 306 289 286 303 297 296 293 284 287 290 287 285 284 279 277 282 277 268 267 261 259 252 239 250 253 259 277 299 312 315 325 338 346 343 343 343
277 279 284 284 285 288 318 321 305 304 305 301 295 299 295 287 288 297 294 296 291 283 275 273 274 267 265 258 250 242 251 249 251 257 285 311 318 321 334 348 345 348 349 348
280 278 289 288 289 302 312 328 303 288 288 292 287 287 293 282 283 298 295 297 299 290 282 277 272 274 267 251 229 215 226 241 251 273 299 310 325 331 345 349 359 352 349 348
256 260 274 271 281 284 298 328 292 284 283 287 284 283 287 273 292 301 298 292 294 291 284 278 274 271 255 232 222 206 189 227 251 292 315 324 339 340 351 344 346 344 344 347
243 252 271 271 278 293 306 334 291 282 290 294 293 295 288 285 297 311 303 290 282 282 277 272 255 196 188 176 196 196 200 185 176 313 338 335 349 356 1 0 348 348 350 349
232 243 261 280 268 292 289 304 295 283 288 300 302 306 277 273 294 325 314 294 280 272 263 252 232 204 172 151 136 101 124 157 244 332 357 357 353 349 353 357 0 3 356 3